www.pogodaiklimat.ru

Погода и климат >> Архив погоды >> Ирак >> Azizyah


ПОГОДА в Azizyah

  • Прогноз погоды в Azizyah
  • Монитор погоды в Azizyah
  • Климат города

АРХИВ ПОГОДЫ в Azizyah

Время (UTC), дата Ветер
(напр.,м/с)
 
Видим.   Явления Облачность Т
(С)
Тd
(С)
f
(%)
Тe
(С)
Тes
(С)
Комфортность P
(гПа)
Po
(гПа)
Тmin
(С)
Tmax
(С)
R
(мм)
R24
(мм)
S
(см)
21 9.08 СЗ 3 10 км ясно +33.6 +13.8 30 +35 +35 душно 1000.2 1000.0
00 10.08 СЗ 4 10 км ясно +31.3 +14.0 35 +33 +33 жарко 999.8 1000.0
03 10.08 СЗ 3 10 км ясно +29.8 +13.4 37 +31 +32 жарко 1002.0 1002.0
06 10.08 З 4 8000 м пыль ясно +36.2 +14.6 28 +37 +45 очень
жарко
1003.2 1003.0 +29.5
09 10.08 З 5 8000 м пыль ясно +42.2 +17.0 23 +44 +55 опасность
перегрева
1003.0 1003.0
12 10.08 З 3 10 км ясно +42.0 +15.5 21 +43 +52 опасность
перегрева
1002.2 1002.0
15 10.08 З 2 10 км ясно +40.3 +15.5 23 +41 +42 опасность
перегрева
1001.8 1002.0
18 10.08 З 3 10 км ясно +35.6 +16.4 32 +38 +38 очень
душно
1002.6 1003.0 +42.3
21 10.08 З 4 10 км ясно +34.4 +14.8 31 +36 +36 душно 1002.7 1003.0
00 11.08 С 5 10 км ясно +31.5 +14.3 35 +33 +33 жарко 1002.2 1002.0
03 11.08 СЗ 3 10 км ясно +28.0 +13.8 42 +30 +30 жарко 1002.8 1003.0
15 11.08 СЗ 4 10 км ясно +40.6 +17.1 26 +43 +44 опасность
перегрева
1001.8 1002.0
06 12.08 С 7 8000 м пыль ясно +38.5 +9.1 17 +37 +40 очень
жарко
1002.6 1003.0 +28.0
09 12.08 СЗ 8 8000 м пыльный позёмок ясно +42.6 +11.9 16 +42 +45 опасность
перегрева
1002.2 1002.0
12 12.08 СЗ 5 10 км ясно +43.1 +8.1 12 +41 +47 опасность
перегрева
1001.4 1001.0
15 12.08 СЗ 7 10 км ясно +41.8 +10.1 15 +40 +40 очень
жарко
1000.6 1001.0
18 12.08 СЗ 4 10 км ясно +36.0 +14.0 27 +37 +37 душно 1000.9 1001.0 +43.2
21 12.08 СЗ 4 10 км ясно +32.7 +10.9 26 +32 +32 жарко 1000.7 1001.0
00 13.08 СЗ 4 10 км ясно +32.7 +10.9 26 +32 +32 жарко 1000.7 1001.0
03 13.08 С 3 10 км ясно +28.2 +9.6 31 +28 +29 жарко 1000.1 1000.0
06 13.08 СЗ 4 10 км ясно +34.6 +13.7 28 +35 +43 очень
жарко
1000.6 1001.0 +28.0
09 13.08 С 8 10 км ясно +40.0 +12.8 20 +40 +43 очень
душно
999.5 1000.0
12 13.08 СЗ 6 10 км ясно +41.6 +12.8 18 +41 +46 опасность
перегрева
998.6 999.0
18 13.08 СЗ 2 10 км ясно +34.6 +14.2 29 +36 +36 душно 998.4 998.0 +41.8
21 13.08 СЗ 2 10 км ясно +32.0 +13.2 32 +33 +33 жарко 997.8 998.0
00 14.08 СЗ 4 10 км ясно +31.0 +12.4 32 +32 +32 жарко 997.0 997.0
03 14.08 С 5 10 км ясно +30.0 +10.9 31 +30 +31 жарко 997.9 998.0
06 14.08 З 8 7000 м пыльный позёмок ясно +34.8 +12.1 25 +35 +37 очень
жарко
999.6 1000.0 +29.9
09 14.08 З 5 7000 м пыль ясно +38.8 +14.5 24 +40 +50 очень
душно
998.9 999.0
12 14.08 З 6 8000 м пыль ясно +41.2 +14.4 21 +42 +46 опасность
перегрева
998.3 998.0
15 14.08 З 3 10 км ясно +39.5 +14.0 22 +40 +40 очень
душно
997.7 998.0
18 14.08 З 2 10 км ясно +35.5 +14.4 28 +36 +36 очень
жарко
998.6 999.0 +41.4
21 14.08 З 3 10 км ясно +32.0 +13.7 33 +33 +33 жарко 998.6 999.0
09 15.08 СЗ 2 8000 м пыль ясно +40.8 +14.2 21 +41 +61 опасность
перегрева
999.9 1000.0
18 15.08 З 2 10 км ясно +36.0 +16.7 32 +39 +39 очень
душно
999.8 1000.0 +42.7
21 15.08 З 2 10 км ясно +33.8 +13.4 29 +35 +35 очень
жарко
999.8 1000.0
00 16.08 СЗ 2 10 км ясно +30.6 +13.5 35 +32 +32 жарко 999.9 1000.0
03 16.08 СЗ 2 10 км ясно +27.8 +12.4 39 +29 +30 жарко 1000.3 1000.0
06 16.08 СЗ 3 10 км ясно +36.4 +7.1 17 +34 +43 очень
жарко
1001.6 1002.0 +27.6
09 16.08 СЗ 3 8000 м пыль ясно +42.6 +12.7 17 +42 +58 опасность
перегрева
1000.8 1001.0
12 16.08 СЗ 3 10 км ясно +44.0 +14.2 18 +45 +54 опасность
перегрева
1000.2 1000.0
15 16.08 СЗ 2 10 км ясно +40.4 +14.5 22 +41 +41 опасность
перегрева
1000.3 1000.0
18 16.08 СЗ 3 10 км ясно +36.0 +16.5 32 +39 +39 очень
душно
1000.7 1001.0 +45.0

 

Местоположение метеостанции Azizyah (Ирак): широта 32.92 долгота 45.07 высота над уровнем моря 25 м.

В архиве по умолчанию представлена погода в Azizyah за последнюю неделю. Архивные данные за месяц целиком и за предыдущие месяцы, начиная с января 2011 года, Вы можете получить, выбрав интересующий диапазон дат из раскрывающегося списка и нажав кнопку "Ввод!".


*Определитесь, кто Вы:
робот инопланетянин человек

Внимание! Время в таблицах - всемирное. Для получения местного времени необходимо прибавить поправку, которая в Azizyah равна 3 ч.

Смотрите также архив погоды в соседних городах и на ближайших метеорологических станциях:

Погода в Ayn Al-Tamar (Ирак) (77 км)
Погода в Hella (Ирак) (78 км)
Погода в Ubaydah Bin Al Jarrah (Ирак) (80 км)
Погода в Badrah (Ирак) (84 км)
Погода в Baghdad (Ирак) (86 км)
Погода в Karbalaa (Ирак) (104 км)
Погода в Diwaniya (Ирак) (105 км)
Погода в Al-Khalis (Ирак) (113 км)
Погода в Kut-Al-Hai (Ирак) (124 км)
Погода в Najaf (Ирак) (126 км)

Пояснения к столбцам:

Ветер - указаны скорость ветра в м/с - средняя за 10 мин, порывы в срок и между сроками (в фигурных скобках) и направление, откуда дует ветер: С - северный, СВ - северо-восточный, В - восточный, ЮВ - юго-восточный, Ю - южный, ЮЗ - юго-западный, З - западный, СЗ - северо-западный.
Видимость - горизонтальная дальность видимости в метрах или километрах. При видимости от 1 до 10 км при отсутствии осадков обычно наблюдается дымка, при ухудшении видимости до 1 км и менее - туман. В сухую погоду видимость может ухудшаться дымом, пылью или мглою.
Явления - указаны атмосферные явления, наблюдавшиеся в срок или в последний час перед сроком; фигурными скобками обозначены явления, наблюдавшиеся между сроками (за 1-3 часа до срока); квадратными скобками обозначены град или гололедные отложения с указанием их диаметра в мм.
Облачность - указаны через наклонную черту общая и нижняя облачность в баллах и высота нижней границы облаков в метрах; квадратными скобками обозначены формы облаков: Ci - перистые, Cs - перисто-слоистые, Cc - перисто-кучевые, Ac - высококучевые, As - высокослоистые, Sc - слоисто-кучевые, Ns - слоисто-дождевые, Cu - кучевые, Cb - кучево-дождевые. Подробнее классификацию облаков см. в Атласе облаков (PDF).
T - Температура воздуха - температура, измеренная на высоте 2 м над землей.
Td - Температура точки росы - температура, при понижении до которой содержащийся в воздухе водяной пар достигнет насыщения.
f - Относительная влажность воздуха - влажноcть воздуха, измеренная на высоте 2 м над землей.
Te - Эффективная температура - температура, которую ощущает одетый по сезону человек в тени. Характеристика душности погоды. При расчете учитывается влияние влажности воздуха и скорости ветра на теплоощущения человека.
Tes - Эффективная температура на солнце - температура, которую ощущает человек, с поправкой на солнечный нагрев. Характеристика знойности погоды. Зависит от высоты солнца над горизонтом, облачности и скорости ветра. Ночью, в пасмурную погоду, а также при ветре 12 м/с и более поправка равна нулю.
P - Атмосферное давление - приведенное к уровню моря атмосферное давление.
Po - Атмосферное давление - измеренное на уровне метеостанции атмосферное давление.
Tmin - Минимальная температура - минимум температуры воздуха на высоте 2 м над землей.
Tmax - Максимальная температура - максимум температуры воздуха на высоте 2 м над землей.
R - Количество осадков - Количество выпавших осадков за период времени, мм. При наведении курсора мыши на число - период времени, за который выпало указанное количество осадков.
R24 - Количество осадков - Количество выпавших осадков за 24 часа, мм.
S - Снежный покров - Высота снежного покрова, см. При наведении курсора мыши на число - состояние снежного покрова и степень покрытия местности в баллах.